| time (UTC) | temp F | wind direction | speed MPH | gust MPH | rain 1hr in | rain 24hr in | rain mn in | humidity % | barometer mb |
| 20260905124601 | 65 | 0 | 0.0 | 1.0 | 0.00 | 0.00 | 0.00 | 55 | 1018.4 |
| 20260905123103 | 65 | 271 | 0.0 | 2.0 | 0.00 | 0.00 | 0.00 | 55 | 1018.2 |
| 20260905121605 | 65 | 0 | 0.0 | 4.0 | 0.00 | 0.00 | 0.00 | 55 | 1018.2 |
| 20260905120105 | 64 | 0 | 0.0 | 2.0 | 0.00 | 0.00 | 0.00 | 56 | 1018.2 |
| 20260905114602 | 65 | 0 | 0.0 | 2.0 | 0.00 | 0.00 | 0.00 | 55 | 1018.2 |
| 20260905113107 | 66 | 0 | 0.0 | 2.0 | 0.00 | 0.00 | 0.00 | 53 | 1018.2 |
| 20260905111646 | 67 | 0 | 0.0 | 3.0 | 0.00 | 0.00 | 0.00 | 53 | 1018.2 |
| 20260905104605 | 66 | 0 | 0.0 | 1.0 | 0.00 | 0.00 | 0.00 | 55 | 1017.9 |
| 20260905103104 | 67 | 0 | 0.0 | 2.0 | 0.00 | 0.00 | 0.00 | 56 | 1017.8 |
| 20260905101607 | 68 | 0 | 0.0 | 2.0 | 0.00 | 0.00 | 0.00 | 55 | 1017.7 |
| 20260905100114 | 68 | 0 | 1.0 | 3.0 | 0.00 | 0.00 | 0.00 | 56 | 1017.7 |
| 20260905094607 | 68 | 0 | 0.0 | 2.0 | 0.00 | 0.00 | 0.00 | 59 | 1017.8 |
| 20260905093107 | 68 | 240 | 0.0 | 1.0 | 0.00 | 0.00 | 0.00 | 60 | 1017.8 |
| 20260905091559 | 69 | 0 | 0.0 | 3.0 | 0.00 | 0.00 | 0.00 | 60 | 1017.8 |
| 20260905090105 | 69 | 0 | 0.0 | 2.0 | 0.00 | 0.00 | 0.00 | 59 | 1017.7 |
| 20260905084607 | 66 | 194 | 0.0 | 1.0 | 0.00 | 0.00 | 0.00 | 62 | 1017.8 |
| 20260905083103 | 67 | 0 | 0.0 | 0.0 | 0.00 | 0.00 | 0.00 | 61 | 1017.9 |
| 20260905081601 | 69 | 0 | 0.0 | 1.0 | 0.00 | 0.00 | 0.00 | 59 | 1018.0 |
| 20260905080129 | 69 | 0 | 0.0 | 0.0 | 0.00 | 0.00 | 0.00 | 58 | 1018.1 |
| 20260905074605 | 70 | 0 | 0.0 | 0.0 | 0.00 | 0.00 | 0.00 | 56 | 1018.1 |
| 20260905073104 | 70 | 0 | 0.0 | 2.0 | 0.00 | 0.00 | 0.00 | 56 | 1018.0 |
| 20260905071600 | 71 | 0 | 0.0 | 1.0 | 0.00 | 0.00 | 0.00 | 55 | 1017.9 |
| 20260905070110 | 71 | 0 | 0.0 | 0.0 | 0.00 | 0.00 | 0.00 | 53 | 1017.8 |
| 20260905064606 | 73 | 0 | 0.0 | 1.0 | 0.00 | 0.00 | 0.00 | 53 | 1017.9 |
| 20260905063103 | 75 | 0 | 0.0 | 1.0 | 0.00 | 0.00 | 0.00 | 48 | 1017.9 |
| 20260905061604 | 76 | 0 | 0.0 | 7.0 | 0.00 | 0.00 | 0.00 | 47 | 1017.7 |
| 20260905060100 | 76 | 256 | 2.0 | 6.0 | 0.00 | 0.00 | 0.00 | 46 | 1017.6 |
| 20260905054608 | 77 | 242 | 1.0 | 6.0 | 0.00 | 0.00 | 0.00 | 46 | 1017.5 |
| 20260905053111 | 76 | 250 | 2.0 | 7.0 | 0.00 | 0.00 | 0.00 | 46 | 1017.5 |
| 20260905051601 | 76 | 251 | 2.0 | 8.0 | 0.00 | 0.00 | 0.00 | 46 | 1017.5 |
| 20260905050108 | 76 | 227 | 3.0 | 8.0 | 0.00 | 0.00 | 0.00 | 46 | 1017.5 |
| 20260905044608 | 76 | 222 | 2.0 | 7.0 | 0.00 | 0.00 | 0.00 | 46 | 1017.5 |
| 20260905043102 | 77 | 250 | 1.0 | 8.0 | 0.00 | 0.00 | 0.00 | 45 | 1017.5 |
| 20260905041606 | 77 | 248 | 3.0 | 8.0 | 0.00 | 0.00 | 0.00 | 45 | 1017.5 |
| 20260905040107 | 77 | 248 | 3.0 | 8.0 | 0.00 | 0.00 | 0.00 | 45 | 1017.3 |
| 20260905034619 | 77 | 257 | 2.0 | 8.0 | 0.00 | 0.00 | 0.00 | 45 | 1017.3 |
| 20260905033119 | 77 | 239 | 3.0 | 7.0 | 0.00 | 0.00 | 0.00 | 45 | 1017.2 |
| 20260905031614 | 77 | 238 | 2.0 | 7.0 | 0.00 | 0.00 | 0.00 | 45 | 1017.0 |
| 20260905030106 | 78 | 228 | 2.0 | 6.0 | 0.00 | 0.00 | 0.00 | 45 | 1016.8 |
| 20260905024605 | 79 | 219 | 2.0 | 8.0 | 0.00 | 0.00 | 0.00 | 44 | 1016.6 |
| 20260905023127 | 79 | 263 | 3.0 | 8.0 | 0.00 | 0.00 | 0.00 | 43 | 1016.3 |
| 20260905021605 | 80 | 227 | 2.0 | 5.0 | 0.00 | 0.00 | 0.00 | 43 | 1016.2 |
| 20260905014559 | 82 | 244 | 2.0 | 7.0 | 0.00 | 0.00 | 0.00 | 39 | 1016.1 |
| 20260905013103 | 83 | 242 | 3.0 | 10.0 | 0.00 | 0.00 | 0.00 | 38 | 1016.0 |
| 20260905011606 | 84 | 234 | 1.0 | 8.0 | 0.00 | 0.00 | 0.00 | 36 | 1016.0 |
| 20260905010112 | 86 | 222 | 3.0 | 9.0 | 0.00 | 0.00 | 0.00 | 34 | 1015.8 |
| 20260905004625 | 86 | 213 | 2.0 | 9.0 | 0.00 | 0.00 | 0.00 | 34 | 1015.8 |
| 20260905003124 | 86 | 205 | 3.0 | 13.0 | 0.00 | 0.00 | 0.00 | 34 | 1015.9 |
| 20260905001603 | 86 | 207 | 4.0 | 11.0 | 0.00 | 0.00 | 0.00 | 33 | 1015.9 |
| 20260905000144 | 88 | 195 | 4.0 | 12.0 | 0.00 | 0.00 | 0.00 | 30 | 1015.9 |
| 20260904234607 | 88 | 221 | 5.0 | 12.0 | 0.00 | 0.00 | 0.00 | 30 | 1015.8 |
| 20260904233105 | 88 | 134 | 3.0 | 13.0 | 0.00 | 0.00 | 0.00 | 36 | 1015.8 |
| 20260904231604 | 88 | 111 | 4.0 | 15.0 | 0.00 | 0.00 | 0.00 | 36 | 1015.8 |
| 20260904230114 | 86 | 151 | 3.0 | 13.0 | 0.00 | 0.00 | 0.00 | 37 | 1016.1 |
| 20260904224606 | 87 | 158 | 3.0 | 14.0 | 0.00 | 0.00 | 0.00 | 37 | 1016.1 |
| 20260904223107 | 87 | 227 | 5.0 | 14.0 | 0.00 | 0.00 | 0.00 | 38 | 1016.3 |
| 20260904221608 | 88 | 150 | 4.0 | 12.0 | 0.00 | 0.00 | 0.00 | 36 | 1016.4 |
| 20260904220107 | 89 | 208 | 5.0 | 11.0 | 0.00 | 0.00 | 0.00 | 35 | 1016.4 |
| 20260904214607 | 88 | 158 | 4.0 | 11.0 | 0.00 | 0.00 | 0.00 | 36 | 1016.4 |
| 20260904213108 | 89 | 186 | 5.0 | 13.0 | 0.00 | 0.00 | 0.00 | 33 | 1016.5 |
| 20260904211603 | 88 | 157 | 3.0 | 8.0 | 0.00 | 0.00 | 0.00 | 37 | 1016.7 |
| 20260904210104 | 88 | 155 | 3.0 | 14.0 | 0.00 | 0.00 | 0.00 | 37 | 1016.9 |
| 20260904204602 | 88 | 178 | 7.0 | 15.0 | 0.00 | 0.00 | 0.00 | 37 | 1017.0 |
| 20260904203100 | 86 | 117 | 3.0 | 14.0 | 0.00 | 0.00 | 0.00 | 36 | 1017.2 |
| 20260904201633 | 87 | 160 | 7.0 | 16.0 | 0.00 | 0.00 | 0.00 | 37 | 1017.2 |
| 20260904200110 | 90 | 165 | 5.0 | 13.0 | 0.00 | 0.00 | 0.00 | 35 | 1017.2 |
| 20260904194604 | 88 | 181 | 4.0 | 15.0 | 0.00 | 0.00 | 0.00 | 39 | 1017.3 |
| 20260904193107 | 87 | 0 | 4.0 | 16.0 | 0.00 | 0.00 | 0.00 | 40 | 1017.6 |
| 20260904191603 | 88 | 147 | 6.0 | 12.0 | 0.00 | 0.00 | 0.00 | 39 | 1017.9 |
| 20260904184604 | 86 | 230 | 5.0 | 11.0 | 0.00 | 0.00 | 0.00 | 45 | 1018.2 |
| 20260904183117 | 85 | 144 | 4.0 | 14.0 | 0.00 | 0.00 | 0.00 | 44 | 1018.3 |
| 20260904181613 | 84 | 152 | 5.0 | 13.0 | 0.00 | 0.00 | 0.00 | 45 | 1018.5 |
| 20260904180110 | 85 | 107 | 3.0 | 8.0 | 0.00 | 0.00 | 0.00 | 44 | 1018.5 |
| 20260904174605 | 84 | 85 | 4.0 | 11.0 | 0.00 | 0.00 | 0.00 | 46 | 1018.7 |
| 20260904173103 | 83 | 130 | 5.0 | 13.0 | 0.00 | 0.00 | 0.00 | 49 | 1018.7 |
| 20260904171615 | 82 | 128 | 4.0 | 10.0 | 0.00 | 0.00 | 0.00 | 50 | 1018.8 |
| 20260904170109 | 80 | 144 | 3.0 | 9.0 | 0.00 | 0.00 | 0.00 | 53 | 1018.8 |
| 20260904164637 | 80 | 92 | 4.0 | 13.0 | 0.00 | 0.00 | 0.00 | 54 | 1018.7 |
| 20260904163101 | 80 | 196 | 4.0 | 10.0 | 0.00 | 0.00 | 0.00 | 56 | 1018.7 |
| 20260904161559 | 80 | 157 | 5.0 | 14.0 | 0.00 | 0.00 | 0.00 | 54 | 1018.4 |
| 20260904160112 | 79 | 160 | 4.0 | 12.0 | 0.00 | 0.00 | 0.00 | 57 | 1018.7 |
| 20260904154605 | 79 | 132 | 4.0 | 9.0 | 0.00 | 0.00 | 0.00 | 59 | 1018.7 |
| 20260904153113 | 78 | 86 | 3.0 | 9.0 | 0.00 | 0.00 | 0.00 | 61 | 1018.6 |
| 20260904151601 | 76 | 73 | 2.0 | 6.0 | 0.00 | 0.00 | 0.00 | 63 | 1018.5 |
| 20260904150100 | 76 | 55 | 2.0 | 6.0 | 0.00 | 0.00 | 0.00 | 63 | 1018.5 |
| 20260904144604 | 75 | 115 | 2.0 | 5.0 | 0.00 | 0.00 | 0.00 | 63 | 1018.4 |
| 20260904143103 | 73 | 69 | 1.0 | 6.0 | 0.00 | 0.00 | 0.00 | 67 | 1018.3 |
| 20260904141603 | 73 | 103 | 1.0 | 3.0 | 0.00 | 0.00 | 0.00 | 67 | 1018.1 |
| 20260904140108 | 70 | 159 | 0.0 | 2.0 | 0.00 | 0.00 | 0.00 | 71 | 1018.0 |
| 20260904134604 | 67 | 0 | 0.0 | 1.0 | 0.00 | 0.00 | 0.00 | 75 | 1017.8 |
| 20260904133106 | 66 | 0 | 0.0 | 2.0 | 0.00 | 0.00 | 0.00 | 76 | 1017.6 |
| 20260904131612 | 65 | 0 | 0.0 | 2.0 | 0.00 | 0.00 | 0.00 | 77 | 1017.6 |
| 20260904130100 | 64 | 0 | 0.0 | 3.0 | 0.00 | 0.00 | 0.00 | 79 | 1017.4 |